When you browse on this site, cookies collect data to enhance your experience and personalize the content and advertising you see.
Visit our Privacy Policy to learn more. By continuing to use the site, you agree to this use of cookies and data.
  • In Sweden
  • List of Countries
  • For 7 days
  • Water Temperature
  • Weather Map
  • Weather Widgets
  • user-avatar
    Login

    Hourly Weather Paro

    Today, 8 April, Wednesday

    Time Temperature Precipitation Wind Pressure Humidity
    00:00 +7°C° 0 mm 1 mps 558 mmHg 82%
    01:00 +7°C° 0 mm 1 mps 558 mmHg 82%
    02:00 +7°C° 0 mm 1 mps 558 mmHg 81%
    03:00 +7°C° 0 mm 1 mps 557 mmHg 81%
    04:00 +6°C° 0 mm 1 mps 558 mmHg 80%
    05:00 +6°C° 0 mm 1 mps 558 mmHg 80%
    06:00 +5°C° 0 mm 2 mps 558 mmHg 77%
    07:00 +9°C° 0 mm 1 mps 560 mmHg 66%
    08:00 +12°C° 0 mm 1 mps 562 mmHg 54%
    09:00 +15°C° 0 mm 1 mps 563 mmHg 43%
    10:00 +16°C° 0 mm 2 mps 563 mmHg 41%
    11:00 +17°C° 0 mm 3 mps 564 mmHg 40%
    12:00 +18°C° 0 mm 3 mps 564 mmHg 38%
    13:00 +17°C° 0.2 mm 3 mps 563 mmHg 44%
    14:00 +16°C° 0.2 mm 3 mps 561 mmHg 50%
    15:00 +14°C° 0.2 mm 3 mps 560 mmHg 56%
    16:00 +13°C° 0.3 mm 3 mps 560 mmHg 60%
    17:00 +13°C° 0.3 mm 2 mps 559 mmHg 64%
    18:00 +10°C° 0.3 mm 2 mps 559 mmHg 69%
    19:00 +10°C° 0.1 mm 1 mps 559 mmHg 72%
    20:00 +9°C° 0.1 mm 1 mps 559 mmHg 76%
    21:00 +8°C° 0.1 mm 1 mps 559 mmHg 80%
    22:00 +8°C° 0.1 mm 1 mps 559 mmHg 80%
    23:00 +8°C° 0.1 mm 1 mps 559 mmHg 81%

    Tomorrow, 9 April, Thursday

    Time Temperature Precipitation Wind Pressure Humidity
    00:00 +7°C° 0.1 mm 1 mps 559 mmHg 82%
    01:00 +7°C° 0 mm 1 mps 559 mmHg 82%
    02:00 +7°C° 0 mm 1 mps 558 mmHg 82%
    03:00 +6°C° 0 mm 1 mps 558 mmHg 82%
    04:00 +6°C° 0 mm 1 mps 558 mmHg 81%
    05:00 +6°C° 0 mm 1 mps 558 mmHg 80%
    06:00 +6°C° 0 mm 1 mps 559 mmHg 79%
    07:00 +8°C° 0 mm 2 mps 560 mmHg 68%
    08:00 +10°C° 0 mm 2 mps 562 mmHg 58%
    09:00 +14°C° 0 mm 2 mps 563 mmHg 47%
    10:00 +15°C° 0.2 mm 2 mps 563 mmHg 47%
    11:00 +16°C° 0.2 mm 2 mps 563 mmHg 46%
    12:00 +16°C° 0.2 mm 3 mps 563 mmHg 45%
    13:00 +14°C° 0.7 mm 3 mps 562 mmHg 54%
    14:00 +14°C° 0.7 mm 2 mps 561 mmHg 62%
    15:00 +13°C° 0.7 mm 2 mps 560 mmHg 71%
    16:00 +12°C° 2.7 mm 2 mps 559 mmHg 79%
    17:00 +10°C° 2.7 mm 1 mps 558 mmHg 87%
    18:00 +9°C° 2.7 mm 1 mps 557 mmHg 95%
    19:00 +8°C° 1.1 mm 1 mps 558 mmHg 94%
    20:00 +8°C° 1.1 mm 1 mps 558 mmHg 93%
    21:00 +7°C° 1.1 mm 1 mps 559 mmHg 92%
    22:00 +7°C° 0.1 mm 1 mps 559 mmHg 91%
    23:00 +7°C° 0.1 mm 1 mps 559 mmHg 89%

    Day after tomorrow, 10 April, Friday

    Time Temperature Precipitation Wind Pressure Humidity
    00:00 +7°C° 0.1 mm 1 mps 559 mmHg 88%
    01:00 +5°C° 0 mm 2 mps 558 mmHg 86%
    02:00 +5°C° 0 mm 2 mps 558 mmHg 84%
    03:00 +4°C° 0 mm 2 mps 558 mmHg 83%
    04:00 +4°C° 0 mm 2 mps 558 mmHg 81%
    05:00 +4°C° 0 mm 2 mps 558 mmHg 79%
    06:00 +3°C° 0 mm 2 mps 558 mmHg 78%
    07:00 +7°C° 0 mm 2 mps 560 mmHg 70%
    08:00 +11°C° 0 mm 1 mps 562 mmHg 63%
    09:00 +14°C° 0 mm 1 mps 564 mmHg 55%
    10:00 +15°C° 0 mm 1 mps 564 mmHg 53%
    11:00 +16°C° 0 mm 1 mps 565 mmHg 52%
    12:00 +17°C° 0 mm 2 mps 565 mmHg 51%
    13:00 +17°C° 0.3 mm 2 mps 564 mmHg 55%
    14:00 +16°C° 0.3 mm 2 mps 563 mmHg 59%
    15:00 +15°C° 0.3 mm 2 mps 562 mmHg 64%
    16:00 +14°C° 0.3 mm 2 mps 561 mmHg 70%
    17:00 +13°C° 0.3 mm 1 mps 561 mmHg 77%
    18:00 +11°C° 0.3 mm 1 mps 560 mmHg 83%
    19:00 +10°C° 0 mm 1 mps 560 mmHg 85%
    20:00 +9°C° 0 mm 1 mps 560 mmHg 87%
    21:00 +8°C° 0 mm 1 mps 560 mmHg 88%
    22:00 +8°C° 0 mm 1 mps 560 mmHg 87%
    23:00 +8°C° 0 mm 1 mps 560 mmHg 87%

    11 April, Saturday

    Time Temperature Precipitation Wind Pressure Humidity
    00:00 +8°C° 0 mm 1 mps 560 mmHg 86%
    01:00 +6°C° 0 mm 2 mps 560 mmHg 84%
    02:00 +6°C° 0 mm 2 mps 560 mmHg 82%
    03:00 +6°C° 0 mm 2 mps 560 mmHg 80%
    04:00 +6°C° 0 mm 2 mps 560 mmHg 78%
    05:00 +5°C° 0 mm 2 mps 560 mmHg 76%
    06:00 +5°C° 0 mm 2 mps 560 mmHg 74%
    07:00 +8°C° 0 mm 2 mps 562 mmHg 65%
    08:00 +13°C° 0 mm 1 mps 564 mmHg 56%
    09:00 +16°C° 0 mm 1 mps 566 mmHg 47%
    10:00 +18°C° 0.2 mm 1 mps 566 mmHg 47%
    11:00 +17°C° 0.2 mm 2 mps 566 mmHg 46%
    12:00 +18°C° 0.2 mm 2 mps 566 mmHg 45%
    13:00 +17°C° 1 mm 2 mps 564 mmHg 51%
    14:00 +16°C° 1 mm 2 mps 563 mmHg 57%
    15:00 +15°C° 1 mm 2 mps 562 mmHg 63%
    16:00 +14°C° 0.9 mm 2 mps 561 mmHg 72%
    17:00 +12°C° 0.9 mm 1 mps 560 mmHg 80%
    18:00 +11°C° 0.9 mm 1 mps 559 mmHg 89%
    19:00 +10°C° 0.1 mm 1 mps 560 mmHg 88%
    20:00 +9°C° 0.1 mm 1 mps 560 mmHg 87%
    21:00 +8°C° 0.1 mm 1 mps 560 mmHg 86%
    22:00 +8°C° 0 mm 1 mps 560 mmHg 86%
    23:00 +7°C° 0 mm 2 mps 560 mmHg 85%

    12 April, Sunday

    Time Temperature Precipitation Wind Pressure Humidity
    00:00 +7°C° 0 mm 2 mps 560 mmHg 84%
    01:00 +7°C° 0 mm 2 mps 560 mmHg 83%
    02:00 +7°C° 0 mm 2 mps 559 mmHg 82%
    03:00 +6°C° 0 mm 2 mps 559 mmHg 82%
    04:00 +6°C° 0 mm 2 mps 559 mmHg 78%
    05:00 +6°C° 0 mm 2 mps 559 mmHg 74%
    06:00 +6°C° 0 mm 2 mps 559 mmHg 71%
    07:00 +9°C° 0 mm 2 mps 561 mmHg 63%
    08:00 +13°C° 0 mm 1 mps 563 mmHg 56%
    09:00 +16°C° 0 mm 1 mps 565 mmHg 49%
    10:00 +19°C° 0.2 mm 1 mps 565 mmHg 46%
    11:00 +19°C° 0.2 mm 2 mps 565 mmHg 44%
    12:00 +20°C° 0.2 mm 2 mps 565 mmHg 42%
    13:00 +18°C° 0.8 mm 2 mps 564 mmHg 50%
    14:00 +17°C° 0.8 mm 2 mps 563 mmHg 59%
    15:00 +16°C° 0.8 mm 2 mps 561 mmHg 68%
    16:00 +15°C° 0.7 mm 2 mps 561 mmHg 74%
    17:00 +14°C° 0.7 mm 1 mps 560 mmHg 80%
    18:00 +12°C° 0.7 mm 1 mps 559 mmHg 87%
    19:00 +12°C° 0.2 mm 1 mps 559 mmHg 85%
    20:00 +11°C° 0.2 mm 1 mps 559 mmHg 83%
    21:00 +9°C° 0.2 mm 2 mps 560 mmHg 81%
    22:00 +9°C° 0 mm 2 mps 560 mmHg 78%
    23:00 +8°C° 0 mm 2 mps 560 mmHg 75%

    13 April, Monday

    Time Temperature Precipitation Wind Pressure Humidity
    00:00 +9°C° 0 mm 1 mps 560 mmHg 72%
    01:00 +8°C° 0 mm 2 mps 559 mmHg 72%
    02:00 +8°C° 0 mm 2 mps 559 mmHg 72%
    03:00 +7°C° 0 mm 2 mps 559 mmHg 71%
    04:00 +7°C° 0 mm 2 mps 559 mmHg 68%
    05:00 +7°C° 0 mm 2 mps 559 mmHg 64%
    06:00 +7°C° 0 mm 2 mps 559 mmHg 60%
    07:00 +12°C° 0 mm 2 mps 561 mmHg 54%
    08:00 +15°C° 0 mm 1 mps 563 mmHg 47%
    09:00 +19°C° 0 mm 1 mps 565 mmHg 41%
    10:00 +20°C° 0 mm 2 mps 565 mmHg 38%
    11:00 +21°C° 0 mm 2 mps 566 mmHg 35%
    12:00 +22°C° 0 mm 3 mps 566 mmHg 32%
    13:00 +21°C° 0.4 mm 3 mps 565 mmHg 41%
    14:00 +20°C° 0.4 mm 3 mps 564 mmHg 50%
    15:00 +19°C° 0.4 mm 3 mps 562 mmHg 58%
    16:00 +17°C° 1.2 mm 2 mps 562 mmHg 66%
    17:00 +15°C° 1.2 mm 1 mps 561 mmHg 74%
    18:00 +13°C° 1.2 mm 1 mps 560 mmHg 82%
    19:00 +12°C° 0.2 mm 1 mps 560 mmHg 81%
    20:00 +11°C° 0.2 mm 1 mps 560 mmHg 80%
    21:00 +10°C° 0.2 mm 2 mps 561 mmHg 78%
    22:00 +9°C° 0 mm 2 mps 560 mmHg 76%
    23:00 +9°C° 0 mm 2 mps 560 mmHg 73%
    Show more